Weather History for Tallahassee, FL

Change the Weather History Date:

Thursday, July 4, 2013

  Actual Average Record
Temperature  
Mean Temperature 76 °F 82 °F  
Max Temperature 79 °F 92 °F 103 °F (1931)
Min Temperature 73 °F 72 °F 60 °F (1916)
Degree Days  
Heating Degree Days 0    
Month to date heating degree days 0  
Since 1 June heating degree days 0  
Since 1 July heating degree days 0  
Cooling Degree Days 11    
Month to date cooling degree days 23  
Year to date cooling degree days 1005  
Since 1 June cooling degree days 543  
Growing Degree Days 26 (Base 50)    
Moisture  
Dew Point 71 °F    
Average Humidity 86    
Maximum Humidity 93    
Minimum Humidity 79    
Precipitation  
Precipitation 0.98 in 0.24 in 2.42 in (1939)
Month to date precipitation 3.51 0.93  
Year to date precipitation 33.22 30.32  
Sea Level Pressure  
Sea Level Pressure 30.09 in    
Wind  
Wind Speed 7 mph (SE)    
Max Wind Speed 25 mph    
Max Gust Speed 39 mph    
Visibility 8 miles    
Events Rain , Thunderstorm    
T = Trace of Precipitation, MM = Missing Value Source: NWS Daily Summary

Daily Weather History Graph

Daily Weather History Graph

Search for Another Location

Airport:

Trip Planner

Search our weather history database for the weather conditions in past years. The results will help you decide how hot, cold, wet, or windy it might be!

Date:

Astronomy

Jul. 04, 2013 Rise Set
Actual Time 6:40 AM EDT 8:43 PM EDT
Civil Twilight 6:12 AM EDT 9:10 PM EDT
Nautical Twilight 5:39 AM EDT 9:44 PM EDT
Astronomical Twilight 5:03 AM EDT 10:19 PM EDT
Moon 3:50 AM EDT (7/4) 5:51 PM EDT (7/4)
Length of Visible Light 14h 57m
Length of Day
14h 03m
Waning Crescent, 11% of the Moon is Illuminated
Jul 4
Waning Crescent
Jul 8
New
Jul 15
First Quarter
Jul 22
Full
Jul 29
Last Quarter

Hourly Weather History & Observations

Time (EDT) Temp. Dew Point Humidity Pressure Visibility Wind Dir Wind Speed Gust Speed Precip Events Conditions
12:03 AM 73.4 °F 71.6 °F 94% 30.10 in 9.0 mi ESE 6.9 mph - 0.01 in Rain Light Rain
12:18 AM 73.4 °F 71.6 °F 94% 30.10 in 8.0 mi East 9.2 mph - 0.02 in Rain Light Rain
12:30 AM 73.4 °F 71.6 °F 94% 30.10 in 10.0 mi East 10.4 mph - 0.02 in Rain Light Rain
12:49 AM 73.4 °F 71.6 °F 94% 30.08 in 10.0 mi East 9.2 mph - 0.03 in   Mostly Cloudy
12:53 AM 73.9 °F 71.1 °F 91% 30.08 in 10.0 mi East 9.2 mph - 0.03 in Rain Light Rain
1:11 AM 73.4 °F 71.6 °F 94% 30.08 in 10.0 mi ESE 13.8 mph - 0.00 in   Mostly Cloudy
1:53 AM 73.9 °F 71.1 °F 91% 30.07 in 10.0 mi East 11.5 mph - 0.00 in   Overcast
2:53 AM 73.9 °F 71.1 °F 91% 30.07 in 10.0 mi SE 4.6 mph - N/A Thunderstorm Overcast
3:11 AM 73.4 °F 71.6 °F 94% 30.07 in 5.0 mi SE 4.6 mph - 0.05 in Rain Rain
3:40 AM 73.4 °F 71.6 °F 94% 30.06 in 7.0 mi ESE 6.9 mph - 0.18 in Rain , Thunderstorm Light Rain
3:53 AM 73.9 °F 71.1 °F 91% 30.05 in 10.0 mi East 6.9 mph - 0.19 in Rain Light Rain
4:04 AM 73.4 °F 71.6 °F 94% 30.05 in 10.0 mi East 9.2 mph - 0.00 in   Scattered Clouds
4:24 AM 73.4 °F 71.6 °F 94% 30.05 in 10.0 mi East 10.4 mph - 0.00 in   Mostly Cloudy
4:53 AM 73.0 °F 71.1 °F 93% 30.04 in 7.0 mi East 13.8 mph - 0.04 in Rain Rain
5:01 AM 73.4 °F 71.6 °F 94% 30.04 in 7.0 mi East 12.7 mph - 0.01 in Rain Light Rain
5:24 AM 73.4 °F 71.6 °F 94% 30.03 in 10.0 mi East 11.5 mph - 0.02 in   Mostly Cloudy
5:53 AM 73.0 °F 71.1 °F 93% 30.03 in 10.0 mi ESE 11.5 mph - 0.02 in   Overcast
6:53 AM 73.9 °F 71.1 °F 91% 30.04 in 10.0 mi ESE 10.4 mph - N/A   Overcast
7:34 AM 73.4 °F 71.6 °F 94% 30.05 in 10.0 mi ESE 10.4 mph - N/A   Scattered Clouds
7:53 AM 73.9 °F 71.1 °F 91% 30.05 in 10.0 mi ESE 11.5 mph - N/A   Partly Cloudy
8:53 AM 75.9 °F 72.0 °F 87% 30.07 in 10.0 mi ESE 10.4 mph - N/A   Scattered Clouds
9:06 AM 77.0 °F 71.6 °F 83% 30.07 in 10.0 mi SE 9.2 mph - N/A   Mostly Cloudy
9:28 AM 78.8 °F 71.6 °F 78% 30.07 in 10.0 mi SE 11.5 mph - N/A   Overcast
9:53 AM 78.1 °F 72.0 °F 81% 30.08 in 10.0 mi SE 13.8 mph 19.6 mph N/A   Mostly Cloudy
10:20 AM 78.8 °F 71.6 °F 78% 30.07 in 10.0 mi ESE 12.7 mph 19.6 mph N/A   Scattered Clouds
10:31 AM 78.8 °F 71.6 °F 78% 30.10 in 6.0 mi South 15.0 mph 20.7 mph 0.00 in Rain , Thunderstorm Light Thunderstorms and Rain
10:33 AM 77.0 °F 71.6 °F 83% 30.10 in 1.0 mi South 25.3 mph 39.1 mph 0.00 in Rain , Thunderstorm Thunderstorms and Rain
10:41 AM 73.4 °F 71.6 °F 94% 30.10 in 0.8 mi South 13.8 mph 39.1 mph 0.23 in Rain , Thunderstorm Heavy Thunderstorms and Rain
10:47 AM 73.4 °F 69.8 °F 88% 30.10 in 2.0 mi SSE 8.1 mph 24.2 mph 0.27 in Rain , Thunderstorm Thunderstorms and Rain
10:53 AM 73.9 °F 71.1 °F 91% 30.10 in 10.0 mi SSE 8.1 mph - 0.27 in Rain , Thunderstorm Light Thunderstorms and Rain
11:12 AM 75.2 °F 69.8 °F 83% 30.11 in 10.0 mi SSE 5.8 mph - 0.01 in Rain , Thunderstorm Light Thunderstorms and Rain
11:51 AM 75.2 °F 71.6 °F 89% 30.12 in 2.0 mi SE 5.8 mph - 0.01 in Rain Light Rain
11:53 AM 75.0 °F 71.1 °F 87% 30.12 in 1.8 mi SE 4.6 mph - 0.03 in Rain Heavy Rain
12:03 PM 75.2 °F 71.6 °F 89% 30.12 in 3.0 mi SE 4.6 mph - 0.09 in Rain Light Rain
12:16 PM 75.2 °F 71.6 °F 89% 30.12 in 8.0 mi SSE 4.6 mph - 0.09 in Rain Light Rain
12:53 PM 75.9 °F 72.0 °F 87% 30.12 in 10.0 mi SE 5.8 mph - 0.11 in Rain Light Rain
1:30 PM 75.2 °F 71.6 °F 89% 30.11 in 2.0 mi SE 4.6 mph - 0.01 in Rain Light Rain
1:53 PM 75.9 °F 72.0 °F 87% 30.12 in 10.0 mi South 4.6 mph - 0.04 in Rain Light Rain
2:25 PM 75.2 °F 73.4 °F 94% 30.11 in 10.0 mi Calm Calm - 0.01 in Rain Light Rain
2:53 PM 77.0 °F 73.0 °F 88% 30.10 in 6.0 mi Calm Calm - 0.03 in Rain Light Rain
3:29 PM 77.0 °F 73.4 °F 89% 30.12 in 1.0 mi SE 11.5 mph 17.3 mph 0.01 in Rain Light Rain
3:47 PM 73.4 °F 68.0 °F 83% 30.12 in 3.0 mi South 12.7 mph - 0.15 in Rain Rain
3:53 PM 73.0 °F 69.1 °F 87% 30.12 in 4.0 mi South 8.1 mph - 0.16 in Rain Light Rain
4:53 PM 73.0 °F 70.0 °F 90% 30.10 in 9.0 mi Calm Calm - 0.06 in Rain Light Rain
5:53 PM 75.0 °F 70.0 °F 84% 30.10 in 10.0 mi SW 4.6 mph - 0.01 in Rain Light Rain
6:53 PM 75.0 °F 71.1 °F 87% 30.09 in 10.0 mi SW 3.5 mph - 0.01 in Rain Light Rain
7:53 PM 73.9 °F 71.1 °F 91% 30.10 in 10.0 mi ESE 6.9 mph - 0.00 in Rain Light Rain
8:53 PM 73.9 °F 71.1 °F 91% 30.09 in 10.0 mi ESE 8.1 mph - 0.01 in Rain Light Rain
9:53 PM 73.9 °F 70.0 °F 87% 30.08 in 10.0 mi SE 10.4 mph - 0.00 in   Mostly Cloudy
10:53 PM 73.9 °F 69.1 °F 85% 30.09 in 10.0 mi SE 5.8 mph - 0.00 in Rain Light Rain
11:53 PM 73.0 °F 69.1 °F 87% 30.12 in 10.0 mi ESE 3.5 mph - 0.00 in   Clear